Home   Weather   Charleston   Past weeks
Flag for USA

Past Weather in Charleston, South Carolina, USA — Yesterday and Last 2 Weeks

Now
77 °F

Passing clouds.


Feels Like: 78 °F
Forecast: 89 / 77 °F
Wind: 5 mph from Southwest

Location: Charleston Air Force Base Reporting Station

Current Time: Aug 21, 2019 at 5:28:51 am

Latest Report: Aug 21, 2019 at 3:56 am


Visibility: 10 mi

Pressure: 30.09 "Hg

Humidity: 90%

Dew Point: 74 °F

Location of CharlestonLocation

Past Weather in Charleston — Graph

°F

Charleston Temperature Yesterday

Maximum temperature yesterday: 90 °F (at 3:21 pm)
Minimum temperature yesterday: 76 °F (at 5:56 am)
Average temperature yesterday: 82 °F

High & Low Weather Summary for the Past Weeks

 TemperatureHumidityPressure
High96 °F (Aug 8, 2:56 pm)97% (Aug 13, 5:56 am)30.15 "Hg (Aug 13, 5:56 am)
Low71 °F (Aug 6, 5:56 am)40% (Aug 9, 1:56 pm)29.82 "Hg (Aug 10, 4:56 pm)
Average82 °F79%29.95 "Hg
* Reported Aug 6 3:56 am — Aug 21 3:56 am, Charleston. Weather by CustomWeather, © 2019

Note: Actual official high and low records may vary slightly from our data, if they occured in-between our weather recording intervals... More about our weather records

Advertising

Charleston Weather History for the Previous 24 Hours

Scroll right to see more
 ConditionsComfort  
Time TempWeatherWind HumidityBarometerVisibility
3:56 am
Wed, Aug 21
77 °FPassing clouds.5 mph90%30.09 "Hg10 mi
2:56 am79 °FPassing clouds.5 mph84%30.09 "Hg10 mi
12:56 am79 °FPassing clouds.8 mph88%30.10 "Hg10 mi
11:56 pm
Tue, Aug 20
79 °FPassing clouds.7 mph84%30.11 "Hg10 mi
10:56 pm79 °FPassing clouds.8 mph82%30.12 "Hg10 mi
9:56 pm79 °FPassing clouds.8 mph82%30.11 "Hg10 mi
8:56 pm81 °FPassing clouds.9 mph79%30.09 "Hg10 mi
7:56 pm81 °FBroken clouds.7 mph77%30.08 "Hg10 mi
6:56 pm84 °FScattered clouds.13 mph70%30.10 "Hg10 mi
5:56 pm87 °FScattered clouds.14 mph63%30.09 "Hg10 mi
4:56 pm88 °FScattered clouds.14 mph59%30.09 "Hg10 mi
3:56 pm90 °FScattered clouds.10 mph56%30.09 "Hg10 mi
3:38 pm90 °FScattered clouds.9 mph57%30.10 "Hg10 mi
3:21 pm90 °FThundershowers. Broken clouds.10 mph57%30.10 "Hg10 mi
2:56 pm89 °FBroken clouds.9 mph61%30.11 "Hg10 mi
1:56 pm88 °FBroken clouds.No wind61%30.13 "Hg10 mi
12:56 pm81 °FPartly sunny.5 mph74%30.15 "Hg10 mi
12:27 pm80 °FThundershowers. Broken clouds.12 mph69%30.15 "Hg10 mi
11:56 am84 °FThunderstorms. Broken clouds.6 mph67%30.15 "Hg10 mi
11:21 am86 °FThundershowers. Partly sunny.9 mph67%30.15 "Hg10 mi
10:56 am86 °FBroken clouds.9 mph70%30.14 "Hg10 mi
9:56 am84 °FBroken clouds.9 mph77%30.14 "Hg10 mi
8:56 am83 °FBroken clouds.5 mph79%30.13 "Hg10 mi
7:56 am81 °FBroken clouds.No wind79%30.12 "Hg10 mi
6:56 am76 °FScattered clouds.No wind91%30.10 "Hg8 mi
5:56 am76 °FPassing clouds.No wind91%30.09 "Hg10 mi
Weather by CustomWeather, © 2019

See weather overview